Location: Fauquembergues
(50.6005°N, 2.0987°E)
Time: 20:24:17
(UTC+00:00)

Cosmos 1833 Rocket - Pass Details

Date: 14 July 2020
Orbit: 832 x 840 km, 71.0° (Epoch: 14 August)

Event Time Altitude Azimuth Distance (km) Brightness Sun altitude
Exits shadow 02:26:28 14° 214° (SW) 2,165 4.1 -10.7°
Maximum altitude 02:31:20 79° 300° (WNW) 855 2.7 -10.2°
Drops below altitude 10° 02:36:59 10° 28° (NNE) 2,456 6.7 -9.7°
Sets 02:39:26 0° 30° (NNE) 3,396 8.0 -9.4°
